FW7672 Weather Reports


Display with metric or nautical units.
time (UTC)temp
F
wind
direction
speed
MPH
gust
MPH
rain 1hr
in
rain 24hr
in
rain mn
in
humidity
%
barometer
mb
20260504110348 39 287 0.0 0.0 0.00 0.00 0.00 88 1013.3
20260504100335 39 287 0.0 0.0 0.00 0.00 0.00 85 1013.2
20260504081838 40 286 0.0 0.0 0.00 0.00 0.00 83 1013.4
20260504081335 40 286 0.0 0.0 0.00 0.00 0.00 83 1013.4
20260504080831 40 286 0.0 0.0 0.00 0.00 0.00 82 1013.4
20260504080327 40 286 0.0 0.0 0.00 0.00 0.00 82 1013.4
20260504070322 41 286 0.0 0.0 0.00 0.00 0.00 81 1013.2
20260504050333 43 286 0.0 0.0 0.00 0.00 0.00 76 1013.3
20260504045841 43 286 0.0 0.0 0.00 0.00 0.00 78 1013.2
20260504045337 43 286 0.0 0.0 0.00 0.00 0.00 76 1013.2
20260504044832 44 286 0.0 0.0 0.00 0.00 0.00 74 1013.3
20260504044329 44 286 0.0 0.0 0.00 0.00 0.00 74 1013.3
20260504043822 44 286 0.0 0.0 0.00 0.00 0.00 74 1013.3
20260504043325 44 286 0.0 0.0 0.00 0.00 0.00 75 1013.3
20260504042825 44 286 0.0 0.0 0.00 0.00 0.00 72 1013.2
20260504042338 44 286 0.0 0.0 0.00 0.00 0.00 72 1013.2
20260504041842 44 286 0.0 0.0 0.00 0.00 0.00 71 1013.2
20260504041338 44 286 0.0 0.0 0.00 0.00 0.00 71 1013.2
20260504040834 45 286 0.0 0.0 0.00 0.00 0.00 71 1013.1
20260504040333 45 286 0.0 0.0 0.00 0.00 0.00 70 1013.1
20260504035858 45 286 0.0 0.0 0.00 0.00 0.00 69 1013.0
20260504035334 45 286 0.0 0.0 0.00 0.00 0.00 70 1012.9
20260504034830 45 286 0.0 0.0 0.00 0.00 0.00 70 1012.8
20260504034351 45 286 0.0 0.0 0.00 0.00 0.00 69 1012.7
20260504033851 45 286 0.0 0.0 0.00 0.00 0.00 69 1012.6
20260504033334 45 286 0.0 0.0 0.00 0.00 0.00 70 1012.6
20260504032829 46 286 0.0 0.0 0.00 0.00 0.00 70 1012.6
20260504032351 46 286 0.0 0.0 0.00 0.00 0.00 68 1012.6
20260504031834 46 286 0.0 0.0 0.00 0.00 0.00 68 1012.6
20260504031328 46 286 0.0 0.0 0.00 0.00 0.00 68 1012.6
20260504030857 46 286 0.0 0.0 0.00 0.00 0.00 69 1012.5
20260504030336 46 286 0.0 0.0 0.00 0.00 0.00 68 1012.5
20260504025829 47 286 0.0 0.0 0.00 0.00 0.00 67 1012.5
20260504025325 47 286 0.0 0.0 0.00 0.00 0.00 68 1012.5
20260504024849 47 286 0.0 0.0 0.00 0.00 0.00 68 1012.5
20260504024324 47 286 0.0 0.0 0.00 0.00 0.00 67 1012.5
20260504023820 47 286 0.0 0.0 0.00 0.00 0.00 66 1012.5
20260504023337 47 286 0.0 0.0 0.00 0.00 0.00 65 1012.5
20260504022833 47 286 0.0 0.0 0.00 0.00 0.00 65 1012.6
20260504022345 48 286 0.0 0.0 0.00 0.00 0.00 66 1012.6
20260504021841 48 286 0.0 0.0 0.00 0.00 0.00 65 1012.6
20260504021339 48 286 0.0 0.0 0.00 0.00 0.00 65 1012.5
20260504020836 48 286 0.0 0.0 0.00 0.00 0.00 64 1012.5
20260504020332 48 286 0.0 0.0 0.00 0.00 0.00 67 1012.5
20260504015824 48 286 0.0 0.0 0.00 0.00 0.00 65 1012.5
20260504015328 48 286 0.0 0.0 0.00 0.00 0.00 64 1012.5
20260504014825 48 286 0.0 0.0 0.00 0.00 0.00 65 1012.5
20260504014339 48 286 0.0 0.0 0.00 0.00 0.00 64 1012.5
20260504013843 49 286 0.0 0.0 0.00 0.00 0.00 64 1012.4
20260504013339 49 286 0.0 0.0 0.00 0.00 0.00 64 1012.5
20260504012837 49 286 0.0 0.0 0.00 0.00 0.00 63 1012.5
20260504012333 49 286 0.0 0.0 0.00 0.00 0.00 64 1012.5
20260504011829 49 286 0.0 0.0 0.00 0.00 0.00 65 1012.4
20260504011334 49 286 0.0 0.0 0.00 0.00 0.00 65 1012.4
20260504010828 50 287 0.0 0.0 0.00 0.00 0.00 63 1012.3
20260504010321 50 287 0.0 0.0 0.00 0.00 0.00 63 1012.3
20260504005821 50 287 0.0 0.0 0.00 0.00 0.00 62 1012.1
20260504005339 51 287 0.0 0.0 0.00 0.00 0.00 62 1012.2
20260504004832 51 287 0.0 0.0 0.00 0.00 0.00 61 1012.1
20260504004337 51 287 0.0 0.0 0.00 0.00 0.00 60 1012.1
20260504003833 52 287 0.0 0.0 0.00 0.00 0.00 60 1012.0
20260504003330 52 287 0.0 0.0 0.00 0.00 0.00 59 1011.9
20260504002827 52 287 0.0 0.0 0.00 0.00 0.00 58 1011.9
20260504002332 53 287 0.0 0.0 0.00 0.00 0.00 58 1011.7
20260504001825 53 287 0.0 0.0 0.00 0.00 0.00 55 1011.7
20260504001349 53 287 0.0 0.0 0.00 0.00 0.00 54 1011.6
20260504000825 54 287 0.0 0.0 0.00 0.00 0.00 55 1011.6
20260504000351 54 286 0.0 0.0 0.00 0.00 0.00 54 1011.6
20260503235821 55 286 0.0 0.0 0.00 0.00 0.00 53 1011.5
20260503235345 55 286 0.0 0.0 0.00 0.00 0.00 55 1011.5
20260503234820 56 286 0.0 0.0 0.00 0.00 0.00 54 1011.4
20260503234407 56 315 0.0 0.0 0.00 0.00 0.00 54 1011.4
20260503233843 56 170 0.0 0.0 0.00 0.00 0.00 53 1011.3
20260503233338 57 240 0.0 0.0 0.00 0.00 0.00 52 1011.4
20260503232834 58 240 0.0 0.0 0.00 0.00 0.00 50 1011.3
20260503232329 58 240 0.0 0.0 0.00 0.00 0.00 47 1011.2
20260503231849 58 17 0.0 0.0 0.00 0.00 0.00 46 1011.1
20260503231323 59 57 0.0 0.0 0.00 0.00 0.00 47 1011.1
20260503230837 60 63 0.0 0.0 0.00 0.00 0.00 44 1011.2
20260503230341 60 277 0.0 0.0 0.00 0.00 0.00 39 1011.2
20260503225854 60 273 1.0 0.0 0.00 0.00 0.00 39 1011.1
20260503225401 61 261 1.0 0.0 0.00 0.00 0.00 39 1011.1
20260503224835 61 318 1.0 0.0 0.00 0.00 0.00 38 1011.0
20260503224332 61 309 1.0 0.0 0.00 0.00 0.00 37 1011.0
20260503223832 61 355 1.0 0.0 0.00 0.00 0.00 41 1010.9
20260503223327 62 286 1.0 0.0 0.00 0.00 0.00 38 1010.8
20260503222828 62 288 1.0 0.0 0.00 0.00 0.00 37 1010.9
20260503222326 62 262 0.0 0.0 0.00 0.00 0.00 37 1010.9
20260503221851 62 319 0.0 0.0 0.00 0.00 0.00 41 1010.9
20260503221324 62 257 0.0 0.0 0.00 0.00 0.00 39 1011.0
20260503220821 62 318 0.0 0.0 0.00 0.00 0.00 40 1011.0
20260503220334 62 283 0.0 0.0 0.00 0.00 0.00 42 1011.0
20260503215842 62 294 1.0 0.0 0.00 0.00 0.00 37 1011.1
20260503215358 63 330 1.0 0.0 0.00 0.00 0.00 37 1011.1
20260503214833 63 234 1.0 0.0 0.00 0.00 0.00 35 1010.9
20260503214342 63 327 1.0 0.0 0.00 0.00 0.00 37 1011.0
20260503213837 62 16 1.0 0.0 0.00 0.00 0.00 38 1011.0
20260503213330 62 25 1.0 0.0 0.00 0.00 0.00 40 1010.9
20260503212826 62 281 1.0 0.0 0.00 0.00 0.00 36 1010.9
20260503212350 62 317 1.0 0.0 0.00 0.00 0.00 38 1010.9
20260503211823 61 46 1.0 0.0 0.00 0.00 0.00 40 1010.8
20260503211346 61 273 1.0 0.0 0.00 0.00 0.00 39 1010.9
20260503210843 61 278 1.0 0.0 0.00 0.00 0.00 39 1010.9
20260503210340 61 303 1.0 0.0 0.00 0.00 0.00 39 1010.8
20260503205836 61 360 1.0 0.0 0.00 0.00 0.00 40 1010.8
20260503205333 61 12 1.0 0.0 0.00 0.00 0.00 38 1010.8
20260503204841 61 292 1.0 0.0 0.00 0.00 0.00 37 1010.7
20260503204354 61 286 1.0 0.0 0.00 0.00 0.00 35 1010.8
20260503203832 61 230 1.0 0.0 0.00 0.00 0.00 39 1011.0
20260503203359 61 16 1.0 0.0 0.00 0.00 0.00 38 1010.9
20260503202835 60 277 1.0 0.0 0.00 0.00 0.00 38 1011.0
20260503202333 60 326 1.0 0.0 0.00 0.00 0.00 37 1010.9
20260503201833 60 313 1.0 0.0 0.00 0.00 0.00 36 1011.1
20260503201330 61 323 1.0 0.0 0.00 0.00 0.00 35 1011.1
20260503200834 61 302 1.0 0.0 0.00 0.00 0.00 39 1011.2
20260503200348 60 5 1.0 0.0 0.00 0.00 0.00 40 1011.1
20260503195831 60 316 2.0 0.0 0.00 0.00 0.00 39 1011.2
20260503195326 60 296 2.0 0.0 0.00 0.00 0.00 36 1011.2
20260503194838 60 274 1.0 0.0 0.00 0.00 0.00 39 1011.4
20260503194341 60 15 2.0 0.0 0.00 0.00 0.00 39 1011.5
20260503193858 60 281 2.0 0.0 0.00 0.00 0.00 39 1011.6
20260503193333 60 275 1.0 0.0 0.00 0.00 0.00 38 1011.7
20260503192837 60 304 0.0 0.0 0.00 0.00 0.00 44 1011.8
20260503192333 60 5 1.0 0.0 0.00 0.00 0.00 41 1011.7
20260503191830 60 341 1.0 0.0 0.00 0.00 0.00 42 1011.8
20260503191354 60 326 2.0 0.0 0.00 0.00 0.00 40 1011.7
20260503190827 60 306 2.0 0.0 0.00 0.00 0.00 40 1011.9
20260503190323 60 291 2.0 0.0 0.00 0.00 0.00 45 1011.8
20260503185844 59 315 2.0 0.0 0.00 0.00 0.00 42 1011.8
20260503185321 59 248 3.0 0.0 0.00 0.00 0.00 40 1012.0
20260503184837 59 321 3.0 0.0 0.00 0.00 0.00 35 1012.1
20260503184333 59 339 2.0 0.0 0.00 0.00 0.00 40 1012.1
20260503183832 59 313 3.0 0.0 0.00 0.00 0.00 42 1012.3
20260503183356 58 255 2.0 0.0 0.00 0.00 0.00 41 1012.3
20260503182832 58 251 2.0 0.0 0.00 0.00 0.00 42 1012.5
20260503182332 58 69 2.0 0.0 0.00 0.00 0.00 41 1012.2
20260503181837 58 278 3.0 0.0 0.00 0.00 0.00 43 1012.4
20260503181334 58 351 3.0 0.0 0.00 0.00 0.00 41 1012.3
20260503180846 58 355 3.0 0.0 0.00 0.00 0.00 41 1012.5
20260503180349 58 355 3.0 0.0 0.00 0.00 0.00 44 1012.5
20260503175825 57 338 3.0 0.0 0.00 0.00 0.00 40 1012.5
20260503175350 57 290 3.0 0.0 0.00 0.00 0.00 41 1012.6
20260503174822 57 47 2.0 0.0 0.00 0.00 0.00 43 1012.6
20260503174325 57 342 2.0 0.0 0.00 0.00 0.00 42 1012.6
20260503173822 57 309 2.0 0.0 0.00 0.00 0.00 43 1012.8
20260503173346 57 257 2.0 0.0 0.00 0.00 0.00 44 1012.7
20260503172823 57 339 3.0 0.0 0.00 0.00 0.00 41 1012.8
20260503172335 56 336 2.0 0.0 0.00 0.00 0.00 46 1012.9
20260503171831 56 293 2.0 0.0 0.00 0.00 0.00 44 1012.9
20260503171402 56 312 2.0 0.0 0.00 0.00 0.00 44 1013.0
20260503170842 56 342 1.0 0.0 0.00 0.00 0.00 45 1012.9
20260503170338 56 267 2.0 0.0 0.00 0.00 0.00 43 1012.9
20260503150833 51 278 1.0 0.0 0.00 0.00 0.00 52 1013.5
20260503150322 50 328 1.0 0.0 0.00 0.00 0.00 52 1013.5
20260503131343 47 325 3.0 0.0 0.00 0.00 0.00 61 1013.8
20260503130839 47 5 3.0 0.0 0.00 0.00 0.00 61 1013.8
20260503130334 46 333 2.0 0.0 0.00 0.00 0.00 61 1013.9